Location: Banksville Park
(38.5557°N, 75.1182°W)
Time: 12:08:49
(UTC+00:00)

ADEOS II - Pass Details

Date: 19 September 2020
Orbit: 799 x 801 km, 98.5° (Epoch: 23 October)

Event Time Altitude Azimuth Distance (km) Brightness Sun altitude
Rises 08:17:38 0° 0° (N) 3,315 5.6 -28.7°
Reaches altitude 10° 08:20:16 10° 349° (NNW) 2,380 4.7 -28.2°
Enters shadow 08:22:10 19° 332° (NNW) 1,831 3.9 -27.9°
